Location: Tierra del Sol
(32.6128°N, 116.3319°W)
Time: 03:10:50
(UTC-07:00)

Amateur Radio Satellites - All Passes

Search period start: 22 September 2014 02:40
Search period end: 23 September 2014 02:40
Location: Tierra del Sol, 32.6128°N, 116.3319°W

Satellite Date Start Highest point End Downlink Frequencies (MHz)
Time Altitude Azimuth
AO-27 22 Sep 02:51:19 02:56:32 71° 102° (ESE) 03:01:44 436.795 MHz FM
TMSAT-1 22 Sep 02:55:26 02:59:42 24° 96° (E) 03:03:56 436.925 FM
AO-Echo 22 Sep 02:57:18 03:02:14 82° 284° (WNW) 03:07:18 ?
Oscar 16 22 Sep 03:06:31 03:11:01 31° 290° (WNW) 03:15:30 437.025 USB, Beacon 2401.1428
JAS-1B 22 Sep 03:15:46 03:21:22 65° 286° (WNW) 03:27:12 435.800 - 435.900 CW/SSB
RS-15 22 Sep 03:16:54 03:27:43 59° 111° (ESE) 03:38:19 29.354 - 29.394 USB, Beacon 29.352 USB
PANSAT 22 Sep 03:17:31 03:21:04 37° 189° (S) 03:24:37 not established
Saudisat 1A 22 Sep 03:18:34 03:20:08 12° 253° (WSW) 03:21:43 436.775 MHz
AO-7 22 Sep 03:25:45 03:29:02 13° 92° (E) 03:32:18 29.400 - 29.500 MHz
KITSAT 1 22 Sep 03:53:30 04:01:14 47° 58° (ENE) 04:08:55 435.175 FM
ITAMSAT 1 22 Sep 03:55:41 03:59:59 27° 291° (WNW) 04:04:18 435.822 SSB
Gurwin Techsat 1B 22 Sep 03:59:15 04:04:25 53° 286° (WNW) 04:09:33 435.225 FM
Uribyol 2 22 Sep 03:59:24 04:03:27 23° 292° (WNW) 04:07:30 436.500 FM
Uosat F 22 Sep 04:10:57 04:14:37 20° 96° (E) 04:18:16 435.120 FM
OPAL 22 Sep 04:21:52 04:26:51 50° 71° (ENE) 04:31:53 ?
AO-27 22 Sep 04:33:39 04:35:23 12° 296° (WNW) 04:37:07 436.795 MHz FM
TMSAT-1 22 Sep 04:34:53 04:39:34 33° 289° (WNW) 04:44:15 436.925 FM
PANSAT 22 Sep 04:58:18 05:00:49 17° 201° (SSW) 05:03:19 not established
AO-7 22 Sep 05:14:19 05:22:39 86° 107° (ESE) 05:30:57 29.400 - 29.500 MHz
RS-15 22 Sep 05:30:41 05:40:28 36° 311° (NW) 05:50:14 29.354 - 29.394 USB, Beacon 29.352 USB
Uosat F 22 Sep 05:48:51 05:53:26 36° 289° (WNW) 05:58:00 435.120 FM
KITSAT 1 22 Sep 05:49:23 05:56:17 32° 254° (WSW) 06:03:11 435.175 FM
OPAL 22 Sep 06:02:54 06:05:55 16° 264° (W) 06:08:58 ?
SO-50 22 Sep 06:04:59 06:08:49 23° 53° (NE) 06:12:40 436.795 FM
JAS-2 22 Sep 06:12:45 06:19:01 56° 101° (E) 06:26:02 435.800 - 435.900 CW/SSB, 435.910 FM
MaSat-1 22 Sep 06:15:59 06:17:42 12° 100° (E) 06:19:27 437.345 MHz
Hamsat 22 Sep 06:41:44 06:45:58 81° 283° (WNW) 06:50:09 145.90 MHz
STRAND 1 22 Sep 06:46:06 06:51:10 76° 75° (ENE) 06:56:16 ?
AO-7 22 Sep 07:09:19 07:14:23 18° 303° (WNW) 07:19:28 29.400 - 29.500 MHz
UOSAT-12 22 Sep 07:28:22 07:30:40 13° 48° (NE) 07:32:57 437.025 FM, 437.400 FM
SO-50 22 Sep 07:45:01 07:49:25 35° 247° (WSW) 07:53:51 436.795 FM
SO-67 22 Sep 07:48:14 07:51:42 84° 101° (ESE) 07:55:08 435.3500 MHz FM
MaSat-1 22 Sep 07:48:55 07:53:50 64° 293° (WNW) 07:58:46 437.345 MHz
RS-15 22 Sep 07:56:51 07:57:39 10° 343° (NNW) 07:58:26 29.354 - 29.394 USB, Beacon 29.352 USB
JAS-2 22 Sep 07:59:06 08:03:43 22° 292° (WNW) 08:08:42 435.800 - 435.900 CW/SSB, 435.910 FM
ISS 22 Sep 08:14:43 08:17:36 27° 38° (NE) 08:20:28 145.800 FM
HO-68 22 Sep 08:41:45 08:47:15 23° 96° (E) 08:52:43 435.675 MHz FM
UOSAT-12 22 Sep 09:06:35 09:11:15 65° 244° (WSW) 09:15:48 437.025 FM, 437.400 FM
ISS 22 Sep 09:51:35 09:54:11 21° 232° (SW) 09:56:46 145.800 FM
FUNcube-1 22 Sep 10:00:25 10:02:54 14° 93° (E) 10:05:20 145.950 - 145.970 MHz USB
Oscar 11 22 Sep 10:01:01 10:05:03 37° 98° (E) 10:09:03 145.825 FM, Beacon 2401.500 USB
RS-15 22 Sep 10:13:37 10:17:51 13° 24° (NNE) 10:22:07 29.354 - 29.394 USB, Beacon 29.352 USB
UKube-1 22 Sep 10:20:30 10:24:53 89° 284° (WNW) 10:29:14 145.840 MHz, 145.915 MHz
HO-68 22 Sep 10:28:14 10:35:10 54° 290° (WNW) 10:42:06 435.675 MHz FM
Sapphire 22 Sep 10:28:49 10:33:03 24° 106° (ESE) 10:37:17 437.095 MHz 1200 baud AX-25 AFSK
ZACube-1 22 Sep 10:41:48 10:46:14 45° 99° (E) 10:50:33 437.345 MHz
PCSat 22 Sep 10:54:25 10:59:33 47° 110° (ESE) 11:04:44 145.825 MHz
FUNcube-1 22 Sep 11:35:05 11:39:25 42° 287° (WNW) 11:43:40 145.950 - 145.970 MHz USB
Oscar 11 22 Sep 11:38:26 11:40:52 15° 292° (WNW) 11:43:17 145.825 FM, Beacon 2401.500 USB
JAS-1B 22 Sep 12:11:02 12:12:30 11° 61° (ENE) 12:13:57 435.800 - 435.900 CW/SSB
Sapphire 22 Sep 12:11:15 12:16:12 36° 301° (WNW) 12:21:12 437.095 MHz 1200 baud AX-25 AFSK
ZACube-1 22 Sep 12:19:46 12:22:10 14° 293° (WNW) 12:24:33 437.345 MHz
RS-15 22 Sep 12:23:34 12:34:09 46° 53° (NE) 12:45:05 29.354 - 29.394 USB, Beacon 29.352 USB
PCSat 22 Sep 12:39:14 12:43:10 20° 306° (NW) 12:47:08 145.825 MHz
Oscar 16 22 Sep 12:40:23 12:44:26 24° 68° (ENE) 12:48:29 437.025 USB, Beacon 2401.1428
ITAMSAT 1 22 Sep 13:29:59 13:34:21 29° 70° (ENE) 13:38:44 435.822 SSB
Uribyol 2 22 Sep 13:33:07 13:37:41 33° 70° (ENE) 13:42:17 436.500 FM
Gurwin Techsat 1B 22 Sep 13:38:22 13:41:29 16° 66° (ENE) 13:44:36 435.225 FM
Oscar 19 22 Sep 13:38:50 13:44:02 90° 258° (WSW) 13:49:15 437.125 CW, 437.150 USB
JAS-1B 22 Sep 13:53:33 14:02:15 72° 74° (ENE) 14:09:30 435.800 - 435.900 CW/SSB
AO-27 22 Sep 14:04:58 14:10:05 68° 75° (ENE) 14:15:14 436.795 MHz FM
AO-Echo 22 Sep 14:06:00 14:10:45 80° 76° (ENE) 14:15:27 ?
TMSAT-1 22 Sep 14:12:01 14:16:15 25° 69° (ENE) 14:20:29 436.925 FM
Oscar 16 22 Sep 14:18:53 14:23:32 34° 262° (W) 14:28:14 437.025 USB, Beacon 2401.1428
AO-7 22 Sep 14:20:57 14:24:44 14° 54° (NE) 14:28:31 29.400 - 29.500 MHz
RS-15 22 Sep 14:35:59 14:46:26 47° 251° (WSW) 14:57:21 29.354 - 29.394 USB, Beacon 29.352 USB
ITAMSAT 1 22 Sep 15:09:26 15:13:44 27° 263° (W) 15:18:05 435.822 SSB
Uribyol 2 22 Sep 15:13:05 15:17:08 23° 264° (W) 15:21:13 436.500 FM
Gurwin Techsat 1B 22 Sep 15:15:48 15:20:57 53° 260° (W) 15:26:08 435.225 FM
Uosat F 22 Sep 15:20:30 15:23:48 18° 67° (ENE) 15:27:06 435.120 FM
Saudisat 1A 22 Sep 15:38:58 15:43:02 39° 113° (ESE) 15:47:09 436.775 MHz
JAS-1B 22 Sep 15:47:10 15:52:53 19° 264° (W) 15:58:06 435.800 - 435.900 CW/SSB
AO-27 22 Sep 15:48:56 15:49:59 11° 268° (W) 15:51:02 436.795 MHz FM
TMSAT-1 22 Sep 15:51:16 15:55:57 32° 262° (W) 16:00:40 436.925 FM
AO-7 22 Sep 16:07:54 16:16:11 78° 71° (ENE) 16:24:29 29.400 - 29.500 MHz
OPAL 22 Sep 16:37:29 16:41:07 19° 97° (E) 16:44:41 ?
Uosat F 22 Sep 16:57:31 17:02:13 42° 261° (W) 17:06:56 435.120 FM
Saudisat 1A 22 Sep 17:19:46 17:22:44 18° 308° (NW) 17:25:44 436.775 MHz
Hamsat 22 Sep 17:30:25 17:34:28 39° 74° (ENE) 17:38:31 145.90 MHz
MaSat-1 22 Sep 17:46:48 17:50:15 68° 250° (WSW) 17:53:11 437.345 MHz
AO-7 22 Sep 18:04:26 18:09:34 18° 266° (W) 18:14:42 29.400 - 29.500 MHz
JAS-2 22 Sep 18:06:16 18:11:33 72° 258° (WSW) 18:16:43 435.800 - 435.900 CW/SSB, 435.910 FM
OPAL 22 Sep 18:15:19 18:20:04 39° 290° (WNW) 18:24:44 ?
KITSAT 1 22 Sep 18:16:06 18:24:00 61° 111° (ESE) 18:31:55 435.175 FM
SO-67 22 Sep 18:18:24 18:20:05 13° 70° (ENE) 18:21:46 435.3500 MHz FM
STRAND 1 22 Sep 19:01:34 19:06:19 37° 99° (E) 19:11:03 ?
Hamsat 22 Sep 19:08:18 19:10:31 14° 267° (W) 19:12:45 145.90 MHz
HO-68 22 Sep 19:10:13 19:11:41 11° 56° (NE) 19:13:09 435.675 MHz FM
PCSat 22 Sep 19:48:07 19:51:25 16° 52° (NE) 19:54:42 145.825 MHz
SO-67 22 Sep 19:49:58 19:52:50 24° 263° (W) 19:55:43 435.3500 MHz FM
KITSAT 1 22 Sep 20:13:09 20:19:48 28° 309° (NW) 20:26:30 435.175 FM
SO-50 22 Sep 20:16:37 20:19:36 18° 109° (ESE) 20:22:38 436.795 FM
STRAND 1 22 Sep 20:41:26 20:45:12 21° 292° (WNW) 20:48:59 ?
HO-68 22 Sep 20:51:04 20:58:09 73° 73° (ENE) 21:05:17 435.675 MHz FM
Oscar 11 22 Sep 20:52:37 20:55:32 18° 69° (ENE) 20:58:28 145.825 FM, Beacon 2401.500 USB
Sapphire 22 Sep 21:03:12 21:08:37 68° 64° (ENE) 21:13:59 437.095 MHz 1200 baud AX-25 AFSK
UKube-1 22 Sep 21:11:35 21:15:40 43° 73° (ENE) 21:19:46 145.840 MHz, 145.915 MHz
PCSat 22 Sep 21:29:53 21:35:15 62° 248° (WSW) 21:40:33 145.825 MHz
ZACube-1 22 Sep 21:34:32 21:37:52 21° 70° (ENE) 21:41:17 437.345 MHz
SO-50 22 Sep 21:55:43 21:59:49 36° 304° (WNW) 22:04:01 436.795 FM
FUNcube-1 22 Sep 22:26:22 22:30:45 88° 78° (ENE) 22:35:17 145.950 - 145.970 MHz USB
Oscar 11 22 Sep 22:27:34 22:31:26 31° 262° (W) 22:35:21 145.825 FM, Beacon 2401.500 USB
HO-68 22 Sep 22:42:15 22:46:21 16° 267° (W) 22:50:28 435.675 MHz FM
Sapphire 22 Sep 22:49:23 22:51:22 12° 257° (WSW) 22:53:20 437.095 MHz 1200 baud AX-25 AFSK
UKube-1 22 Sep 22:50:12 22:52:01 12° 266° (W) 22:53:50 145.840 MHz, 145.915 MHz
ZACube-1 22 Sep 23:10:20 23:14:04 27° 264° (W) 23:17:55 437.345 MHz
UOSAT-12 22 Sep 23:13:07 23:17:42 74° 299° (WNW) 23:22:23 437.025 FM, 437.400 FM
PANSAT 22 Sep 23:32:51 23:36:06 26° 165° (SSE) 23:39:20 not established
Saudisat 1A 23 Sep 00:12:26 00:13:16 10° 47° (NE) 00:14:05 436.775 MHz
ISS 23 Sep 00:53:15 00:56:34 76° 316° (NW) 00:59:53 145.800 FM
Oscar 16 23 Sep 00:58:45 01:00:06 11° 92° (E) 01:01:28 437.025 USB, Beacon 2401.1428
PANSAT 23 Sep 01:12:17 01:15:57 44° 177° (S) 01:19:37 not established
JAS-1B 23 Sep 01:45:37 01:49:28 18° 96° (E) 01:53:25 435.800 - 435.900 CW/SSB
ITAMSAT 1 23 Sep 01:48:31 01:51:22 15° 94° (E) 01:54:12 435.822 SSB
Saudisat 1A 23 Sep 01:48:55 01:53:20 76° 243° (WSW) 01:57:43 436.775 MHz
Uribyol 2 23 Sep 01:51:18 01:54:41 17° 94° (E) 01:58:02 436.500 FM
Oscar 19 23 Sep 01:55:20 02:00:17 46° 100° (E) 02:05:11 437.125 CW, 437.150 USB
KITSAT 1 23 Sep 02:16:29 02:20:34 14° 41° (NE) 02:24:38 435.175 FM
AO-Echo 23 Sep 02:17:33 02:22:07 37° 99° (E) 02:26:48 ?
AO-27 23 Sep 02:22:55 02:27:41 35° 98° (E) 02:32:26 436.795 MHz FM
TMSAT-1 23 Sep 02:33:30 02:36:09 14° 93° (E) 02:38:47 436.925 FM
